User: anonymous   Login
Location: Unspecified
(0.0000°N, 0.0000°E)
Time: 19:34:14
(UTC+00:00)
Language:

ASGARDIA 1 - Orbit

View from above orbital plane
View from above orbital plane
View from above satellite
View from above satellite

Ground track
Ground track

The orbit is defined by the following mean orbital elements,

1 43049U 17071N   22255.05173450  .15425766  12621-4  25874-3 0  9998
2 43049  51.6097 313.3868 0002955 270.4685  89.6006 16.47958215269368
Epoch (UTC): 12 September 2022 01:14:29
Eccentricity: 0.0002955
inclination: 51.6097°
perigee height: 143 km
apogee height: 146 km
right ascension of ascending node: 313.3868°
argument of perigee: 270.4685°
revolutions per day: 16.47958215
mean anomaly at epoch: 89.6006°

The dashed part of the orbit path shows where the satellite is in the earth's shadow,  

DLR